Dania, FL

5:38 PM EST on February 08, 2016 (GMT -0500)
Fort Lauderdale-Hollywood International

Weather History for KFLL - July, 2013

Change the Weather History Date:

Thursday, July 25, 2013

  Actual Average Record
Temperature  
Mean Temperature 85 °F 85 °F  
Max Temperature 93 °F 91 °F 98 °F (1975)
Min Temperature 76 °F 79 °F 69 °F (1988)
Degree Days  
Heating Degree Days 0 0  
Month to date heating degree days 0 0  
Since 1 June heating degree days 0 0  
Since 1 July heating degree days 0 0  
Cooling Degree Days 20 20  
Month to date cooling degree days 417 481  
Year to date cooling degree days 2357 2442  
Since 1 June cooling degree days 961 1024  
Growing Degree Days 34 (Base 50)    
Moisture  
Dew Point 73 °F    
Average Humidity 70    
Maximum Humidity 88    
Minimum Humidity 52    
Precipitation  
Precipitation 0.00 in 0.18 in 1.50 in (1945)
Month to date precipitation 14.53 4.92  
Year to date precipitation 54.04 32.57  
Snow  
Snow 0.00 in - - ()
Month to date snowfall 0.0  
Since 1 June snowfall 0.0  
Since 1 July snowfall 0.0  
Snow Depth 0.00 in    
Sea Level Pressure  
Sea Level Pressure 29.98 in    
Wind  
Wind Speed 8 mph (WSW)    
Max Wind Speed 15 mph    
Max Gust Speed 20 mph    
Visibility 10 miles    
Events      
T = Trace of Precipitation, MM = Missing Value Source: NWS Daily Summary

Daily Weather History Graph

Daily Weather History Graph

Search for Another Location

Airport or City:

Trip Planner

Search our weather history database for the weather conditions in past years. The results will help you decide how hot, cold, wet, or windy it might be!

Date:

Astronomy

Jul. 25, 2013 Rise Set
Actual Time 6:43 AM EDT 8:10 PM EDT
Civil Twilight 6:17 AM EDT 8:36 PM EDT
Nautical Twilight 5:47 AM EDT 9:05 PM EDT
Astronomical Twilight 5:16 AM EDT 9:37 PM EDT
Moon 10:19 PM EDT (7/25) 9:45 AM EDT (7/25)
Length of Visible Light 14h 18m
Length of Day
13h 27m
Waning Gibbous, 88% of the Moon is Illuminated
Jul 25
Waning Gibbous
Jul 29
Last Quarter
Aug 6
New
Aug 14
First Quarter
Aug 20
Full

Hourly Weather History & Observations

Time (EDT) Temp. Heat Index Dew Point Humidity Pressure Visibility Wind Dir Wind Speed Gust Speed Precip Events Conditions
12:53 AM 81.0 °F 85.2 °F 72.0 °F 74% 29.97 in 10.0 mi West 10.4 mph - N/A   Partly Cloudy
1:53 AM 80.1 °F 83.8 °F 72.0 °F 76% 29.96 in 10.0 mi WSW 5.8 mph - N/A   Clear
2:53 AM 79.0 °F - 72.0 °F 79% 29.94 in 10.0 mi West 5.8 mph - N/A   Partly Cloudy
3:53 AM 78.1 °F - 72.0 °F 81% 29.94 in 10.0 mi West 5.8 mph - N/A   Partly Cloudy
4:53 AM 78.1 °F - 73.0 °F 84% 29.93 in 10.0 mi Calm Calm - N/A   Clear
5:53 AM 77.0 °F - 73.0 °F 88% 29.94 in 10.0 mi SSW 4.6 mph - N/A   Clear
6:53 AM 77.0 °F - 73.0 °F 88% 29.96 in 10.0 mi SW 3.5 mph - N/A   Clear
7:53 AM 78.1 °F - 73.9 °F 87% 29.97 in 10.0 mi SW 4.6 mph - N/A   Clear
8:53 AM 82.0 °F 87.9 °F 73.9 °F 76% 29.99 in 10.0 mi WSW 6.9 mph - N/A   Clear
9:53 AM 84.0 °F 90.2 °F 73.0 °F 69% 30.00 in 10.0 mi WSW 10.4 mph - N/A   Scattered Clouds
10:53 AM 86.0 °F 90.7 °F 70.0 °F 59% 30.01 in 10.0 mi West 12.7 mph - N/A   Scattered Clouds
11:53 AM 88.0 °F 94.7 °F 72.0 °F 59% 30.03 in 10.0 mi West 8.1 mph - N/A   Mostly Cloudy
12:53 PM 88.0 °F 92.9 °F 70.0 °F 55% 30.02 in 10.0 mi West 12.7 mph - N/A   Scattered Clouds
1:53 PM 90.0 °F 96.4 °F 71.1 °F 54% 30.00 in 10.0 mi West 9.2 mph - N/A   Scattered Clouds
2:53 PM 91.9 °F 98.4 °F 71.1 °F 50% 29.99 in 10.0 mi WNW 9.2 mph - N/A   Mostly Cloudy
3:53 PM 91.9 °F 99.5 °F 72.0 °F 52% 29.98 in 10.0 mi West 10.4 mph 17.3 mph N/A   Scattered Clouds
4:53 PM 91.0 °F 98.2 °F 72.0 °F 53% 29.98 in 10.0 mi West 10.4 mph - N/A   Partly Cloudy
5:53 PM 91.0 °F 98.2 °F 72.0 °F 53% 29.98 in 10.0 mi West 8.1 mph - N/A   Mostly Cloudy
6:53 PM 90.0 °F 96.9 °F 72.0 °F 55% 29.98 in 10.0 mi WSW 12.7 mph - N/A   Partly Cloudy
7:53 PM 88.0 °F 93.8 °F 71.1 °F 57% 29.99 in 10.0 mi West 8.1 mph - N/A   Partly Cloudy
8:53 PM 86.0 °F 96.0 °F 75.9 °F 72% 29.99 in 10.0 mi SW 10.4 mph - N/A   Partly Cloudy
9:53 PM 84.9 °F 94.1 °F 75.9 °F 74% 30.01 in 10.0 mi SW 9.2 mph - N/A   Partly Cloudy
10:53 PM 84.0 °F 91.2 °F 73.9 °F 72% 30.02 in 10.0 mi West 10.4 mph - N/A   Partly Cloudy
11:53 PM 82.9 °F 90.2 °F 75.0 °F 77% 30.03 in 10.0 mi WSW 9.2 mph - N/A   Partly Cloudy